{"data":{"norad_id":61878,"intl_designator":"2024-204E","name":"STARLINK-11314 [DTC]","alt_names":[],"object_type":"PAYLOAD","status":"ACTIVE","operator":null,"country":"US","launch_date":"2024-11-09","launch_site_code":"AFWTR","launch_vehicle":null,"mission":null,"orbit_class":"UNKNOWN","rcs_meters":null,"size_class":null,"mass_kg":null,"dimensions":null,"purposes":["comms"],"wikipedia_slug":null,"has_3d_model":false,"image_url":null,"decayed_at":null,"tle_current":{"epoch":"2026-05-24T20:19:18.895008Z","epoch_age_seconds":88411,"freshness":"FRESH","line1":"1 61878U 24204E   26144.84674647  .00001325  00000+0  15790-4 0  9991","line2":"2 61878  53.1595 341.0057 0000990  75.5518 284.5610 15.69708080 88870","mean_motion":15.6970808,"eccentricity":9.9e-5,"inclination_deg":53.1595,"raan_deg":341.0057,"arg_perigee_deg":75.5518,"mean_anomaly_deg":284.561,"bstar":1.579e-5,"rev_number":8887,"period_min":91.736802425073,"perigee_km":359.06519567522,"apogee_km":360.39929378567,"semimajor_km":6737.8692447304,"source":"CELESTRAK","updated_at":"2026-05-25T13:38:19.474901Z"}}}